Time,TemperatureF,DewpointF,PressureIn,WindDirection,WindDirectionDegrees,WindSpeedMPH,WindSpeedGustMPH,Humidity,HourlyPrecipIn,Conditions,Clouds,dailyrainin,SoftwareType,DateUTC
2013-05-20 00:09:00,63.0,62.0,29.50,ENE,65,1.0,-999.0,97,-99.99,,,0.00,weatherlink.com 1.10,2013-05-20 05:09:00,
2013-05-20 00:24:00,63.0,62.0,29.50,ENE,77,0.0,-999.0,97,-99.99,,,0.00,weatherlink.com 1.10,2013-05-20 05:24:00,
2013-05-20 00:39:00,63.0,62.0,29.50,ENE,71,0.0,-999.0,97,-99.99,,,0.00,weatherlink.com 1.10,2013-05-20 05:39:00,
2013-05-20 00:54:00,62.9,62.0,29.49,ESE,105,1.0,-999.0,97,-99.99,,,0.00,weatherlink.com 1.10,2013-05-20 05:54:00,
2013-05-20 01:09:00,62.9,62.0,29.49,East,100,0.0,-999.0,97,-99.99,,,0.00,weatherlink.com 1.10,2013-05-20 06:09:00,
2013-05-20 01:24:00,62.7,62.0,29.47,East,81,0.0,-999.0,97,-99.99,,,0.00,weatherlink.com 1.10,2013-05-20 06:24:00,
2013-05-20 01:39:00,62.7,62.0,29.47,East,79,1.0,-999.0,97,-99.99,,,0.00,weatherlink.com 1.10,2013-05-20 06:39:00,
2013-05-20 01:54:00,62.7,62.0,29.46,ESE,103,0.0,-999.0,97,-99.99,,,0.00,weatherlink.com 1.10,2013-05-20 06:54:00,
2013-05-20 02:09:00,62.6,62.0,29.46,East,101,0.0,-999.0,99,-99.99,,,0.00,weatherlink.com 1.10,2013-05-20 07:09:00,
2013-05-20 02:24:00,62.6,62.0,29.46,East,99,0.0,-999.0,99,-99.99,,,0.00,weatherlink.com 1.10,2013-05-20 07:24:00,
2013-05-20 02:39:00,62.5,62.0,29.46,East,99,0.0,-999.0,97,-99.99,,,0.00,weatherlink.com 1.10,2013-05-20 07:39:00,
2013-05-20 02:54:00,62.7,62.0,29.46,East,99,0.0,-999.0,97,-99.99,,,0.00,weatherlink.com 1.10,2013-05-20 07:54:00,
2013-05-20 03:09:00,62.7,62.0,29.47,East,98,1.0,-999.0,97,-99.99,,,0.01,weatherlink.com 1.10,2013-05-20 08:09:00,
2013-05-20 03:24:00,62.7,62.0,29.46,East,98,0.0,-999.0,98,-99.99,,,0.01,weatherlink.com 1.10,2013-05-20 08:24:00,
2013-05-20 03:39:00,62.7,62.0,29.45,East,98,0.0,-999.0,98,-99.99,,,0.01,weatherlink.com 1.10,2013-05-20 08:39:00,
2013-05-20 03:54:00,62.6,62.0,29.45,East,98,0.0,-999.0,97,-99.99,,,0.01,weatherlink.com 1.10,2013-05-20 08:54:00,
2013-05-20 04:09:00,62.5,62.0,29.45,East,98,0.0,-999.0,97,-99.99,,,0.01,weatherlink.com 1.10,2013-05-20 09:09:00,
2013-05-20 04:24:00,62.5,62.0,29.44,East,98,0.0,-999.0,97,-99.99,,,0.01,weatherlink.com 1.10,2013-05-20 09:24:00,
2013-05-20 04:39:00,62.5,62.0,29.44,East,98,0.0,-999.0,97,-99.99,,,0.01,weatherlink.com 1.10,2013-05-20 09:39:00,
2013-05-20 04:54:00,62.5,62.0,29.43,East,98,0.0,-999.0,97,-99.99,,,0.01,weatherlink.com 1.10,2013-05-20 09:54:00,
2013-05-20 05:09:00,62.3,62.0,29.43,East,98,0.0,-999.0,98,-99.99,,,0.01,weatherlink.com 1.10,2013-05-20 10:09:00,
2013-05-20 05:24:00,62.3,62.0,29.44,East,98,0.0,-999.0,98,-99.99,,,0.02,weatherlink.com 1.10,2013-05-20 10:24:00,
2013-05-20 05:39:00,62.2,62.0,29.45,East,92,0.0,-999.0,98,-99.99,,,0.02,weatherlink.com 1.10,2013-05-20 10:39:00,
2013-05-20 05:54:00,62.1,62.0,29.45,East,92,0.0,-999.0,98,-99.99,,,0.02,weatherlink.com 1.10,2013-05-20 10:54:00,
2013-05-20 06:09:00,62.1,62.0,29.46,East,92,1.0,-999.0,98,-99.99,,,0.02,weatherlink.com 1.10,2013-05-20 11:09:00,
2013-05-20 06:24:00,62.2,62.0,29.45,ESE,104,1.0,-999.0,98,-99.99,,,0.02,weatherlink.com 1.10,2013-05-20 11:24:00,
2013-05-20 06:39:00,62.2,62.0,29.46,ENE,67,0.0,-999.0,98,-99.99,,,0.02,weatherlink.com 1.10,2013-05-20 11:39:00,
2013-05-20 06:54:00,62.3,62.0,29.46,ESE,110,1.0,-999.0,98,-99.99,,,0.02,weatherlink.com 1.10,2013-05-20 11:54:00,
2013-05-20 07:09:00,62.5,62.0,29.46,ESE,113,0.0,-999.0,98,-99.99,,,0.05,weatherlink.com 1.10,2013-05-20 12:09:00,
2013-05-20 07:24:00,62.4,62.0,29.46,SE,140,0.0,-999.0,98,-99.99,,,0.06,weatherlink.com 1.10,2013-05-20 12:24:00,
2013-05-20 07:39:00,62.8,62.0,29.46,SE,129,1.0,-999.0,98,-99.99,,,0.07,weatherlink.com 1.10,2013-05-20 12:39:00,
2013-05-20 07:54:00,62.7,62.0,29.46,SE,134,0.0,-999.0,98,-99.99,,,0.10,weatherlink.com 1.10,2013-05-20 12:54:00,
2013-05-20 08:09:00,62.6,62.0,29.46,SSE,153,0.0,-999.0,98,-99.99,,,0.11,weatherlink.com 1.10,2013-05-20 13:09:00,
2013-05-20 08:24:00,63.1,63.0,29.47,SE,134,1.0,-999.0,98,-99.99,,,0.11,weatherlink.com 1.10,2013-05-20 13:24:00,
2013-05-20 08:39:00,62.9,62.0,29.46,SSE,165,2.0,-999.0,98,-99.99,,,0.11,weatherlink.com 1.10,2013-05-20 13:39:00,
2013-05-20 08:54:00,62.7,62.0,29.46,SSE,160,1.0,-999.0,98,-99.99,,,0.11,weatherlink.com 1.10,2013-05-20 13:54:00,
2013-05-20 09:09:00,63.2,63.0,29.46,SE,129,3.0,-999.0,98,-99.99,,,0.11,weatherlink.com 1.10,2013-05-20 14:09:00,
2013-05-20 09:25:00,63.5,63.0,29.46,South,170,0.0,-999.0,98,-99.99,,,0.11,weatherlink.com 1.10,2013-05-20 14:25:00,
2013-05-20 09:40:00,63.8,63.0,29.46,SSE,147,0.0,-999.0,98,-99.99,,,0.11,weatherlink.com 1.10,2013-05-20 14:40:00,
2013-05-20 09:55:00,64.2,63.0,29.46,WSW,246,2.0,-999.0,97,-99.99,,,0.11,weatherlink.com 1.10,2013-05-20 14:55:00,
2013-05-20 10:10:00,65.3,64.0,29.45,SSW,201,1.0,-999.0,96,-99.99,,,0.11,weatherlink.com 1.10,2013-05-20 15:10:00,
2013-05-20 10:25:00,67.2,65.0,29.45,SE,144,6.0,-999.0,91,-99.99,,,0.11,weatherlink.com 1.10,2013-05-20 15:25:00,
2013-05-20 10:40:00,68.4,62.0,29.45,ESE,118,1.0,-999.0,81,-99.99,,,0.11,weatherlink.com 1.10,2013-05-20 15:40:00,
2013-05-20 11:10:00,70.1,61.0,29.44,West,263,2.0,-999.0,74,-99.99,,,0.11,weatherlink.com 1.10,2013-05-20 16:10:00,
2013-05-20 11:25:00,71.2,63.0,29.44,SE,128,5.0,-999.0,74,-99.99,,,0.11,weatherlink.com 1.10,2013-05-20 16:25:00,
2013-05-20 11:40:00,72.4,63.0,29.44,SE,146,2.0,-999.0,72,-99.99,,,0.11,weatherlink.com 1.10,2013-05-20 16:40:00,
2013-05-20 11:55:00,73.3,62.0,29.44,ESE,102,4.0,-999.0,67,-99.99,,,0.11,weatherlink.com 1.10,2013-05-20 16:55:00,
2013-05-20 12:10:00,74.1,64.0,29.43,ESE,103,0.0,-999.0,71,-99.99,,,0.11,weatherlink.com 1.10,2013-05-20 17:10:00,
2013-05-20 12:25:00,72.6,61.0,29.44,West,261,1.0,-999.0,67,-99.99,,,0.11,weatherlink.com 1.10,2013-05-20 17:25:00,
2013-05-20 12:40:00,71.1,62.0,29.44,SSW,193,0.0,-999.0,72,-99.99,,,0.11,weatherlink.com 1.10,2013-05-20 17:40:00,
2013-05-20 12:55:00,68.5,61.0,29.45,East,90,0.0,-999.0,78,-99.99,,,0.13,weatherlink.com 1.10,2013-05-20 17:55:00,
2013-05-20 13:10:00,66.7,62.0,29.45,SSW,195,2.0,-999.0,86,-99.99,,,0.13,weatherlink.com 1.10,2013-05-20 18:10:00,
2013-05-20 13:25:00,67.4,64.0,29.44,ESE,119,5.0,-999.0,89,-99.99,,,0.13,weatherlink.com 1.10,2013-05-20 18:25:00,
2013-05-20 13:40:00,68.3,63.0,29.44,SE,140,3.0,-999.0,84,-99.99,,,0.13,weatherlink.com 1.10,2013-05-20 18:40:00,
2013-05-20 13:55:00,69.9,62.0,29.44,SE,129,3.0,-999.0,77,-99.99,,,0.13,weatherlink.com 1.10,2013-05-20 18:55:00,
2013-05-20 14:10:00,68.4,62.0,29.45,SSW,199,2.0,-999.0,80,-99.99,,,0.13,weatherlink.com 1.10,2013-05-20 19:10:00,
2013-05-20 14:25:00,66.7,62.0,29.45,ESE,123,2.0,-999.0,84,-99.99,,,0.14,weatherlink.com 1.10,2013-05-20 19:25:00,
2013-05-20 14:41:00,66.9,64.0,29.45,SSW,204,0.0,-999.0,90,-99.99,,,0.14,weatherlink.com 1.10,2013-05-20 19:41:00,
2013-05-20 14:55:00,67.3,64.0,29.45,South,178,1.0,-999.0,89,-99.99,,,0.14,weatherlink.com 1.10,2013-05-20 19:55:00,
2013-05-20 15:10:00,69.4,63.0,29.45,WSW,252,2.0,-999.0,80,-99.99,,,0.14,weatherlink.com 1.10,2013-05-20 20:10:00,
2013-05-20 15:25:00,69.6,61.0,29.45,SW,234,3.0,-999.0,74,-99.99,,,0.14,weatherlink.com 1.10,2013-05-20 20:25:00,
2013-05-20 15:40:00,67.4,62.0,29.46,WSW,249,1.0,-999.0,83,-99.99,,,0.16,weatherlink.com 1.10,2013-05-20 20:40:00,
2013-05-20 15:55:00,66.6,63.0,29.46,SE,132,0.0,-999.0,88,-99.99,,,0.16,weatherlink.com 1.10,2013-05-20 20:55:00,
2013-05-20 16:10:00,65.9,63.0,29.47,SW,232,0.0,-999.0,89,-99.99,,,0.16,weatherlink.com 1.10,2013-05-20 21:10:00,
2013-05-20 16:25:00,66.1,63.0,29.47,West,265,3.0,-999.0,88,-99.99,,,0.16,weatherlink.com 1.10,2013-05-20 21:25:00,
2013-05-20 16:40:00,67.2,61.0,29.47,SW,227,1.0,-999.0,81,-99.99,,,0.16,weatherlink.com 1.10,2013-05-20 21:40:00,
2013-05-20 16:55:00,68.4,61.0,29.47,WSW,244,0.0,-999.0,77,-99.99,,,0.16,weatherlink.com 1.10,2013-05-20 21:55:00,
2013-05-20 17:10:00,69.9,61.0,29.47,WSW,254,3.0,-999.0,73,-99.99,,,0.16,weatherlink.com 1.10,2013-05-20 22:10:00,
2013-05-20 17:25:00,69.8,60.0,29.48,SSW,204,1.0,-999.0,70,-99.99,,,0.16,weatherlink.com 1.10,2013-05-20 22:25:00,
2013-05-20 17:40:00,70.5,60.0,29.48,SW,230,0.0,-999.0,70,-99.99,,,0.16,weatherlink.com 1.10,2013-05-20 22:40:00,
2013-05-20 17:55:00,70.1,60.0,29.48,SSE,167,3.0,-999.0,71,-99.99,,,0.16,weatherlink.com 1.10,2013-05-20 22:55:00,
2013-05-20 18:10:00,69.5,60.0,29.48,SSW,202,1.0,-999.0,72,-99.99,,,0.16,weatherlink.com 1.10,2013-05-20 23:10:00,
2013-05-20 18:25:00,69.0,60.0,29.49,South,172,0.0,-999.0,73,-99.99,,,0.16,weatherlink.com 1.10,2013-05-20 23:25:00,
2013-05-20 18:40:00,68.8,59.0,29.49,WSW,243,2.0,-999.0,71,-99.99,,,0.16,weatherlink.com 1.10,2013-05-20 23:40:00,
2013-05-20 18:55:00,68.8,59.0,29.49,SSW,207,3.0,-999.0,71,-99.99,,,0.16,weatherlink.com 1.10,2013-05-20 23:55:00,
2013-05-20 19:10:00,68.7,59.0,29.48,ESE,109,0.0,-999.0,72,-99.99,,,0.16,weatherlink.com 1.10,2013-05-21 00:10:00,
2013-05-20 19:25:00,68.3,59.0,29.49,SE,140,0.0,-999.0,73,-99.99,,,0.16,weatherlink.com 1.10,2013-05-21 00:25:00,
2013-05-20 19:40:00,68.2,60.0,29.49,ESE,104,0.0,-999.0,74,-99.99,,,0.16,weatherlink.com 1.10,2013-05-21 00:40:00,
2013-05-20 19:55:00,68.0,59.0,29.48,SE,134,0.0,-999.0,74,-99.99,,,0.16,weatherlink.com 1.10,2013-05-21 00:55:00,
2013-05-20 20:10:00,67.7,59.0,29.49,SE,134,0.0,-999.0,74,-99.99,,,0.16,weatherlink.com 1.10,2013-05-21 01:10:00,
2013-05-20 20:25:00,66.2,61.0,29.49,SE,137,0.0,-999.0,82,-99.99,,,0.19,weatherlink.com 1.10,2013-05-21 01:25:00,
2013-05-20 20:40:00,65.2,61.0,29.49,SE,137,0.0,-999.0,85,-99.99,,,0.19,weatherlink.com 1.10,2013-05-21 01:40:00,
2013-05-20 20:55:00,64.6,61.0,29.49,SE,137,0.0,-999.0,87,-99.99,,,0.19,weatherlink.com 1.10,2013-05-21 01:55:00,
2013-05-20 21:10:00,64.0,61.0,29.49,SE,137,0.0,-999.0,89,-99.99,,,0.19,weatherlink.com 1.10,2013-05-21 02:10:00,
2013-05-20 21:25:00,63.5,61.0,29.48,SE,137,0.0,-999.0,90,-99.99,,,0.19,weatherlink.com 1.10,2013-05-21 02:25:00,
2013-05-20 21:40:00,63.2,61.0,29.49,SE,137,0.0,-999.0,91,-99.99,,,0.19,weatherlink.com 1.10,2013-05-21 02:40:00,
2013-05-20 21:55:00,63.1,61.0,29.50,SE,137,0.0,-999.0,92,-99.99,,,0.20,weatherlink.com 1.10,2013-05-21 02:55:00,
2013-05-20 22:10:00,63.2,61.0,29.50,SE,137,0.0,-999.0,92,-99.99,,,0.21,weatherlink.com 1.10,2013-05-21 03:10:00,
2013-05-20 22:25:00,62.9,61.0,29.51,SE,137,0.0,-999.0,93,-99.99,,,0.25,weatherlink.com 1.10,2013-05-21 03:25:00,
2013-05-20 22:40:00,62.0,60.0,29.51,SE,134,0.0,-999.0,92,-99.99,,,0.31,weatherlink.com 1.10,2013-05-21 03:40:00,
2013-05-20 22:55:00,60.8,59.0,29.50,SE,133,1.0,-999.0,92,-99.99,,,0.32,weatherlink.com 1.10,2013-05-21 03:55:00,
2013-05-20 23:10:00,60.1,58.0,29.47,ENE,74,0.0,-999.0,93,-99.99,,,0.33,weatherlink.com 1.10,2013-05-21 04:10:00,
2013-05-20 23:25:00,59.8,58.0,29.46,ENE,74,0.0,-999.0,93,-99.99,,,0.33,weatherlink.com 1.10,2013-05-21 04:25:00,
2013-05-20 23:40:00,59.9,58.0,29.46,ENE,74,0.0,-999.0,93,-99.99,,,0.34,weatherlink.com 1.10,2013-05-21 04:40:00,
2013-05-20 23:55:00,59.6,58.0,29.46,East,101,0.0,-999.0,94,-99.99,,,0.35,weatherlink.com 1.10,2013-05-21 04:55:00,